Location: Unspecified
(52.0000°N, 4.4000°E)
Time: 05:48:22
(UTC+00:00)

Cosmos 1536 - Pass Details

Date: 14 May 2025
Orbit: 494 x 518 km, 82.5° (Epoch: 22 June)

Event Time Altitude Azimuth Distance (km) Brightness Sun altitude
Rises 22:59:34 0° 342° (NNW) 2,652 7.9 -18.6°
Reaches altitude 10° 23:01:50 10° 334° (NNW) 1,756 6.5 -18.7°
Maximum altitude 23:05:20 34° 268° (W) 857 3.8 -18.8°
Enters shadow 23:06:23 29° 234° (SW) 970 3.8 -18.8°
